SB KEPS @ AMSAT $ORB26265.1 2Line Orbital Elements 26265.AMSAT QST de W1STR AMSAT Orbital Elements for Amateur Satellites in TLE Format From Orbital Analysis Office New England Sci-Tech STEM Education Center Natick MA September 22, 2026 To all radio amateurs These element sets describe the orbits of various satellites in use by the amateur radio community. For details see: www.amsat.org/keplerian-elements-formats/ A daily update of element sets is available at: www.amsat.org/tle/daily-bulletin.txt or without bulletin text: www.amsat.org/tle/dailytle.txt AO-07 1 07530U 74089B 26264.28807289 -.00000037 00000-0 56963-4 0 9991 2 07530 101.9920 278.5390 0011988 309.0150 62.1343 12.53699625372568 UO-11 1 14781U 84021B 26264.59867159 .00000918 00000-0 98525-4 0 9997 2 14781 97.8183 229.1702 0006511 216.5120 143.5655 14.91004048271495 LO-19 1 20442U 90005G 26264.32235117 .00000045 00000-0 32872-4 0 9995 2 20442 98.8819 288.7617 0010485 285.5996 74.4030 14.34144915916176 AO-27 1 22825U 93061C 26264.14444221 .00000027 00000-0 27180-4 0 9991 2 22825 98.6788 331.4782 0008540 171.4513 188.6816 14.30962225720724 FO-29 1 24278U 96046B 26264.42427543 .00000003 00000-0 39492-4 0 9993 2 24278 98.5162 100.1013 0349409 206.5418 151.7455 13.53278433486181 GO-32 1 25397U 98043D 26264.22649603 .00000027 00000-0 32049-4 0 9993 2 25397 99.0160 259.4469 0000700 356.5801 3.5372 14.24443582465009 ISS 1 25544U 98067A 26264.49719541 .00007274 00000-0 13903-3 0 9999 2 25544 51.6310 183.4357 0004788 164.7753 195.3381 15.49212079586682 NO-44 1 26931U 01043C 26264.54492342 .00000037 00000-0 44626-4 0 9998 2 26931 67.0532 355.0403 0005854 273.0731 86.9701 14.31985313304243 SO-50 1 27607U 02058C 26264.17312219 .00000541 00000-0 81625-4 0 9999 2 27607 64.5524 191.9652 0071615 244.8202 114.5466 14.83221192278697 CO-55 1 27844U 03031E 26264.27513155 .00000165 00000-0 90365-4 0 9990 2 27844 98.6774 271.6428 0008385 266.4617 93.5603 14.24383809205357 RS-22 1 27939U 03042A 26264.64118179 .00000560 00000-0 94173-4 0 9995 2 27939 98.3484 91.7554 0010655 328.9762 118.5667 14.73607319229753 CO-65 1 32785U 08021C 26264.61012432 .00002882 00000-0 18033-3 0 9993 2 32785 97.8387 248.1465 0010345 65.6659 294.5648 15.10210453999747 CO-66 1 32791U 08021J 26263.55189160 .00013623 00000-0 39424-3 0 9997 2 32791 97.7575 266.2526 0002303 30.1974 329.9401 15.35729789 1909 RS-30 1 32953U 08025A 26264.59169586 .00000016 00000-0 44566-4 0 9992 2 32953 82.5014 295.4810 0020724 101.1284 259.2128 12.43183045831670 SRMSAT 1 37841U 11058D 26264.51834166 .00000345 00000-0 43525-4 0 9997 2 37841 19.9709 196.3858 0011823 183.1590 333.8602 14.11593613771444 ZACUBE-1 1 39417U 13066B 26264.43886393 .00003139 00000-0 24155-3 0 9990 2 39417 97.8159 227.2845 0038825 290.7224 68.9840 15.01854235695174 Delfi-N3xt 1 39428U 13066N 26264.51931825 .00003805 00000-0 32670-3 0 9993 2 39428 97.8286 184.7873 0071196 245.4384 113.9406 14.96138335689022 GOMX-1 1 39430U 13066Q 26264.59809242 .00001258 00000-0 19319-3 0 9996 2 39430 97.6438 98.9848 0128990 127.1399 234.1673 14.69713241684074 LO-74 1 39440U 13066AA 26264.57152017 .00001996 00000-0 18533-3 0 9992 2 39440 97.8991 214.0370 0058493 68.1271 292.6155 14.94300999691381 AO-73 1 39444U 13066AE 26264.20450628 .00004785 00000-0 28963-3 0 9992 2 39444 97.8392 237.7962 0033780 235.1218 124.6834 15.10653388694156 DTUSAT-2 1 40030U 14033W 26263.97144515 .00004352 00000-0 22999-3 0 9991 2 40030 98.0927 267.8912 0006049 267.8920 92.1618 15.16076549667192 LILACSAT-2 1 40908U 15049K 26264.60165947 .00013783 00000-0 21100-3 0 9997 2 40908 97.4557 305.2690 0004644 251.8008 108.2740 15.54472924610717 Lapan A3 1 41603U 16040E 26264.64233049 .00002206 00000-0 70062-4 0 9995 2 41603 97.1574 257.6969 0011211 38.2130 321.9906 15.33630088569597 CAS-2T 1 41847U 16066G 26264.22680710 .00000831 00000-0 12550-3 0 9997 2 41847 98.3748 338.8543 0340888 197.9120 160.9816 14.44851980518660 TechnoSat 1 42829U 17042E 26264.37673077 .00002675 00000-0 18984-3 0 9992 2 42829 97.4408 58.4814 0018575 123.3767 236.9240 15.05432613501174 AO-91 1 43017U 17073E 26263.88554801 .00005833 00000-0 24855-3 0 9997 2 43017 97.4549 129.1458 0147072 358.5223 1.5554 15.13986341479869 S-Net D 1 43186U 18014G 26263.70625347 .00002972 00000-0 15191-3 0 9999 2 43186 97.5248 167.8931 0009516 54.7416 305.4706 15.17418514473244 S-Net B 1 43187U 18014H 26264.18126562 .00002837 00000-0 14528-3 0 9991 2 43187 97.5254 168.3543 0010061 48.8940 311.3161 15.17389628473312 S-Net A 1 43188U 18014J 26264.16620636 .00003190 00000-0 16270-3 0 9990 2 43188 97.5265 168.5671 0009923 49.6245 310.5853 15.17430114473317 S-Net C 1 43189U 18014K 26264.18572791 .00002823 00000-0 14458-3 0 9999 2 43189 97.5281 168.6758 0011104 42.1843 318.0243 15.17380180471860 Ten-Koh 1 43677U 18084G 26263.51851961 .00000756 00000-0 60689-4 0 9994 2 43677 98.0716 99.9156 0009838 151.9560 208.2196 15.03253812430481 PO-101 1 43678U 18084H 26264.65649949 .00001035 00000-0 86713-4 0 9999 2 43678 98.1174 105.1119 0012102 205.1991 154.8642 15.00742305430689 QO-100 1 43700U 18090A 26264.56551103 .00000140 00000-0 00000-0 0 9993 2 43700 0.0007 173.7376 0001178 353.8158 62.2585 1.00271473 28640 MinXSS-2 1 43758U 18099A 26264.59061150 .00034917 00000-0 54442-3 0 9997 2 43758 97.4445 344.1343 0005553 261.8068 98.2555 15.53765286429066 AO-95 1 43770U 18099N 26264.43169419 .00007398 00000-0 26902-3 0 9994 2 43770 97.4285 324.3943 0008342 18.4903 341.6638 15.28520623427916 SNUSat 2 1 43782U 18099AA 26261.13610748 .00004914 00000-0 21133-3 0 9999 2 43782 97.3962 313.1241 0009052 338.1889 21.8961 15.23071167427174 SnugLite 1 43784U 18099AC 26264.40245248 .00006958 00000-0 25005-3 0 9995 2 43784 97.3772 317.8070 0001523 341.0753 19.0431 15.28958962428011 ITASat 1 1 43786U 18099AE 26263.89849579 .00004104 00000-0 19293-3 0 9999 2 43786 97.3935 313.5167 0012680 25.4875 334.6983 15.20074721427446 EAGLET 1 1 43790U 18099AJ 26264.13202192 .00002296 00000-0 13154-3 0 9996 2 43790 97.4137 311.2471 0011427 22.4366 337.7364 15.13540923426843 ESEO 1 43792U 18099AL 26264.36088647 .00000858 00000-0 65363-4 0 9992 2 43792 97.3909 297.6073 0012176 13.9078 346.2481 15.04483029426267 JO-97 1 43803U 18099AX 26264.43861899 .00011979 00000-0 33870-3 0 9994 2 43803 97.4034 327.7517 0003836 287.0401 73.0423 15.36472711428393 Suomi 100 1 43804U 18099AY 26264.57750797 .00008465 00000-0 29020-3 0 9992 2 43804 97.4089 324.6966 0007988 302.4260 57.6208 15.30406437428154 ISAT 1 43879U 18111D 26264.10570713 .00672402 21790-3 10920-2 0 9994 2 43879 97.5694 208.6053 0009963 143.3023 216.8941 16.03328286426293 UWE-4 1 43880U 18111E 26264.27204069 .00030221 00000-0 49985-3 0 9991 2 43880 97.5811 197.5096 0005520 5.2814 354.8496 15.52151926425653 Prox-1 1 44339U 19036A 26264.18639626 .00009675 00000-0 88905-3 0 9993 2 44339 23.9933 191.9468 0005497 72.9298 287.1804 14.92614573387824 Taurus 1 1 44530U 19059C 26264.66407610 .00002189 00000-0 35001-3 0 9992 2 44530 98.6501 75.6017 0008540 15.3359 344.8104 14.72931810372840 TO-108 1 44881U 19093C 26264.63418321 .00000981 00000-0 11637-3 0 9994 2 44881 97.7447 334.4759 0014716 125.5521 234.7070 14.86642430365746 RS-44 1 44909U 19096E 26264.00939365 .00000029 00000-0 81504-4 0 9999 2 44909 82.5167 276.0315 0216341 280.4022 77.2762 12.79749428314604 SALSAT 1 46495U 20068K 26264.32463802 .00005122 00000-0 17379-3 0 9992 2 46495 97.8892 273.3525 0008439 335.0533 25.0298 15.30990671330065 CSS (TIANHE-1) 1 48274U 21035A 26263.98635566 .00014007 00000-0 17119-3 0 9997 2 48274 41.4678 100.3250 0002512 293.9975 66.0601 15.60145341308125 TeikyoSat 4 1 49396U 21102B 26264.29627183 .00001167 00000-0 75963-4 0 9994 2 49396 97.3627 290.0357 0010992 329.3839 30.6748 15.09786721267224 Z-Sat 1 49399U 21102E 26264.59885946 .00002215 00000-0 10914-3 0 9992 2 49399 97.3267 297.0003 0014482 270.8160 89.1416 15.18885041268077 KOSEN 1 1 49402U 21102H 26263.59121350 .00004558 00000-0 16930-3 0 9994 2 49402 97.3103 303.9283 0012069 223.7642 136.2642 15.27989942268585 HO-113 1 50466U 21131B 26264.61413698 .00000168 00000-0 65449-4 0 9994 2 50466 98.4967 356.4778 0004518 154.1050 206.0366 14.41428946249001 SNUGLITE 2 1 52899U 22065F 26264.16703332 .00000575 00000-0 11769-3 0 9997 2 52899 98.2343 48.9136 0008678 84.3401 275.8791 14.64493121225041 UmKA 1 (RS40S) 1 57172U 23091G 26264.58627562 .00003881 00000-0 17409-3 0 9992 2 57172 97.4952 322.9213 0013584 137.9642 222.2639 15.21729565178662 CubeBel-2 (EU11S) 1 57175U 23091K 26264.57128827 .00008212 00000-0 27460-3 0 9995 2 57175 97.4953 328.7426 0010554 129.0684 231.1498 15.31207505179049 RS-38S 1 57189U 23091Z 26264.53935145 .00012339 00000-0 32342-3 0 9995 2 57189 97.5003 336.1039 0007989 88.7814 271.4346 15.38796559179495 SONATE-2 1 59112U 24043Q 26263.18449285 .00045310 00000-0 43676-3 0 9993 2 59112 97.5624 60.0165 0005401 207.1016 152.9962 15.66376204142728 GRBBeta 1 60237U 24128C 26264.50164467 .00001972 00000-0 14373-3 0 9998 2 60237 61.9883 238.1920 0026483 155.8214 204.4129 15.07203742120780 Curium One 1 60242U 24128H 26264.58632162 .00004500 00000-0 25931-3 0 9996 2 60242 61.9772 224.0196 0025711 149.8421 210.4162 15.13689037121044 ROBUSTA-3A 1 60243U 24128J 26264.47507935 .00003841 00000-0 22875-3 0 9995 2 60243 61.9847 227.4346 0027704 147.0793 213.2035 15.12767720120985 CatSat 1 60246U 24125J 26264.04335619 .00093868 00000-0 68379-3 0 9993 2 60246 97.1942 118.6597 0015345 175.0363 185.1056 15.72866649122388 AO-123 1 61781U 24199AY 26264.56238013 .00005363 00000-0 15046-3 0 9992 2 61781 97.2839 132.3693 0012345 329.6356 30.4172 15.36921947148725 LASARsat 1 62391U 24247Q 26262.82201670 .00033498 00000-0 53930-3 0 9994 2 62391 44.9718 88.0673 0009767 232.1281 127.8728 15.52377278 97992 CroCube 1 62394U 24247T 26263.89520826 .00038917 00000-0 55900-3 0 9992 2 62394 44.9695 77.3471 0010500 248.1402 111.8375 15.55439305 98215 JINJUSat 1B 1 63210U 25052A 26264.50065656 .00011487 00000-0 32712-3 0 9998 2 63210 97.3862 161.5064 0005257 95.1714 265.0130 15.36252104 84871 NUSHSAT 1 1 63211U 25052B 26263.97601595 .00015527 00000-0 39747-3 0 9991 2 63211 97.3831 161.9276 0004999 98.3591 261.8222 15.39483743 84860 TEVEL2-4 1 63213U 25052D 26264.52083955 .00013923 00000-0 37746-3 0 9994 2 63213 97.3756 161.2173 0004588 106.7413 253.4335 15.37740894 84906 TEVEL2-5 1 63214U 25052E 26264.16332783 .00013508 00000-0 36914-3 0 9996 2 63214 97.3755 160.7754 0004410 108.5467 251.6257 15.37502263 84840 TEVEL2-6 1 63215U 25052F 26263.98252351 .00013266 00000-0 36301-3 0 9999 2 63215 97.3757 160.5791 0004311 109.4815 250.6896 15.37465495 84819 TEVEL2-1 1 63217U 25052H 26264.50418556 .00012534 00000-0 35023-3 0 9998 2 63217 97.3732 160.6036 0004342 117.6309 242.5377 15.36826991 84871 TEVEL2-3 1 63218U 25052J 26263.97375170 .00012841 00000-0 35803-3 0 9990 2 63218 97.3734 160.1086 0004064 117.0378 243.1282 15.36891154 84791 TEVEL2-2 1 63219U 25052K 26264.50373933 .00012783 00000-0 35696-3 0 9991 2 63219 97.3731 160.6077 0004378 117.8238 242.3450 15.36842426 84870 TEVEL2-9 1 63237U 25052AD 26263.96118710 .00011070 00000-0 33239-3 0 9999 2 63237 97.3790 159.2132 0006887 142.7798 217.3923 15.34584512 84702 TEVEL2-7 1 63238U 25052AE 26263.69662525 .00011216 00000-0 34074-3 0 9998 2 63238 97.3794 158.8192 0006777 145.1380 215.0308 15.34210774 84652 TEVEL2-8 1 63239U 25052AF 26263.64044394 .00011438 00000-0 34755-3 0 9994 2 63239 97.3793 158.7377 0006840 144.1187 216.0517 15.34199195 84646 SPIRONE 1 66657U 25274H 26264.24975497 .00000949 00000-0 94586-4 0 9995 2 66657 97.7485 192.1862 0013415 58.1766 302.0758 14.93860671 44567 K-HERO 1 66660U 25274L 26264.02753661 .00001453 00000-0 14050-3 0 9990 2 66660 97.7494 192.1973 0015370 62.3759 297.9019 14.94255126 44549 SNUGLITE-III DURI 1 66661U 25274M 26263.74606936 .00001433 00000-0 13857-3 0 9993 2 66661 97.7489 191.9397 0015964 64.2204 296.0661 14.94259657 44508 SAKHACUBE-CHOLBON 1 67290U 25313AU 26262.47528959 .00006672 00000-0 25897-3 0 9990 2 67290 97.3858 336.3909 0009481 32.4435 327.7385 15.26386511 40357 RS95S (QMR-KWT-2) 1 67291U 25313AV 26264.45013929 .00008975 00000-0 32560-3 0 9990 2 67291 97.3851 338.7702 0008545 23.5960 336.5670 15.28528331 40683 Ten-Koh2 1 68261U 25241B 26263.46677853 .00004081 00000-0 17505-3 0 9996 2 68261 51.6567 225.7887 0008222 102.0552 258.1348 15.24919814 29447 JACK-002 1 68417U 26067B 26264.14876928 .00004487 00000-0 20899-3 0 9996 2 68417 97.4674 221.6777 0001152 15.8919 344.2352 15.20418457 26524 DISCO 2 1 68431U 26067R 26264.31397382 .00005668 00000-0 26370-3 0 9995 2 68431 97.4705 221.8436 0003452 53.3764 306.7788 15.20338415 26542 HADES-SA (SpinnyONE) 1 68446U 26067AG 26263.83917578 .00014241 00000-0 62530-3 0 9997 2 68446 97.4493 220.9552 0008948 97.9414 262.2838 15.22006593 26466 PARUS-6U1 1 68456U 26067AS 26264.16748662 .00004031 00000-0 19929-3 0 9991 2 68456 97.4660 221.1680 0007463 90.2933 269.9156 15.18378127 26491 SAL-E 1 68458U 26067AU 26264.13688928 .00004973 00000-0 24111-3 0 9992 2 68458 97.4580 221.0373 0007765 97.0212 263.1905 15.18950057 26498 FSI-SAT 2 1 68792U 26088A 26264.35424109 .00003344 00000-0 22401-3 0 9990 2 68792 97.5201 51.3233 0015191 135.2327 225.0130 15.07480619 22777 OrigamiSat 2 1 68795U 26088D 26264.40059485 .00008320 00000-0 50514-3 0 9995 2 68795 97.5187 51.8689 0015723 107.6696 252.6252 15.10653650 22813 ARICA 2 1 68796U 26088E 26263.39923905 .00002587 00000-0 16676-3 0 9990 2 68796 97.5192 50.7369 0016913 110.5785 249.7261 15.09074875 22650 WASEDA-SAT-ZERO-II 1 68797U 26088F 26262.64357720 .00004134 00000-0 26074-3 0 9997 2 68797 97.5183 50.0502 0016405 112.7189 247.5777 15.09553759 22540 MANGARO-II-Piscus 1 68798U 26088G 26264.49218754 .00003049 00000-0 19408-3 0 9993 2 68798 97.5201 51.9022 0020166 109.9016 250.4388 15.09365427 22820 CO-128 1 69912U 26156AV 26264.51883190 .00000824 00000-0 88975-4 0 9997 2 69912 97.7470 163.6071 0001017 227.1138 132.9995 14.90956694 11351 MARINA 1 69920U 26156BD 26264.19016089 .00001373 00000-0 14028-3 0 9992 2 69920 97.7439 163.3940 0005849 262.7202 97.3352 14.92181300 11314 IO-86 1 40931U 26199.45381863 .00000000 00000-0 77536-4 0 07 2 40931 6.0006 322.6653 0012733 338.8432 273.6875 14.79294310 03 LILIUM-4 1 71922C 26067AC 26089.50133053 -.00014632 00000+0 -74472-3 0 04 2 71922 97.4497 49.1617 0004341 5.9603 355.7042 15.16896692 16 /EX